﻿測定場所 (Monitoring sites),日付 (Measurement date),時間 (Measurement time),線量率 最大値 (max) μGy/h,線量率 最小値 (min) μGy/h,線量率 平均値 (average) μGy/h,
江戸川 (Edogawa),2012-01-29,23:01～24:00,0.137,0.120,0.127,
江戸川 (Edogawa),2012-01-29,22:01～23:00,0.137,0.120,0.128,
江戸川 (Edogawa),2012-01-29,21:01～22:00,0.133,0.120,0.127,
江戸川 (Edogawa),2012-01-29,20:01～21:00,0.132,0.122,0.127,
江戸川 (Edogawa),2012-01-29,19:01～20:00,0.134,0.121,0.127,
江戸川 (Edogawa),2012-01-29,18:01～19:00,0.133,0.120,0.127,
江戸川 (Edogawa),2012-01-29,17:01～18:00,0.132,0.120,0.126,
江戸川 (Edogawa),2012-01-29,16:01～17:00,0.135,0.118,0.127,
江戸川 (Edogawa),2012-01-29,15:01～16:00,0.135,0.120,0.127,
江戸川 (Edogawa),2012-01-29,14:01～15:00,0.132,0.121,0.127,
江戸川 (Edogawa),2012-01-29,13:01～14:00,0.132,0.119,0.127,
江戸川 (Edogawa),2012-01-29,12:01～13:00,0.132,0.119,0.126,
江戸川 (Edogawa),2012-01-29,11:01～12:00,0.134,0.121,0.128,
江戸川 (Edogawa),2012-01-29,10:01～11:00,0.133,0.120,0.125,
江戸川 (Edogawa),2012-01-29,09:01～10:00,0.131,0.117,0.126,
江戸川 (Edogawa),2012-01-29,08:01～09:00,0.133,0.118,0.126,
江戸川 (Edogawa),2012-01-29,07:01～08:00,0.131,0.119,0.126,
江戸川 (Edogawa),2012-01-29,06:01～07:00,0.135,0.120,0.126,
江戸川 (Edogawa),2012-01-29,05:01～06:00,0.133,0.119,0.126,
江戸川 (Edogawa),2012-01-29,04:01～05:00,0.136,0.121,0.126,
江戸川 (Edogawa),2012-01-29,03:01～04:00,0.132,0.120,0.126,
江戸川 (Edogawa),2012-01-29,02:01～03:00,0.135,0.120,0.126,
江戸川 (Edogawa),2012-01-29,01:01～02:00,0.135,0.120,0.127,
江戸川 (Edogawa),2012-01-29,00:01～01:00,0.133,0.120,0.126,
江戸川 (Edogawa),2012-01-28,23:01～24:00,0.131,0.119,0.126,
江戸川 (Edogawa),2012-01-28,22:01～23:00,0.131,0.121,0.126,
江戸川 (Edogawa),2012-01-28,21:01～22:00,0.134,0.119,0.127,
江戸川 (Edogawa),2012-01-28,20:01～21:00,0.134,0.121,0.126,
江戸川 (Edogawa),2012-01-28,19:01～20:00,0.134,0.117,0.126,
江戸川 (Edogawa),2012-01-28,18:01～19:00,0.132,0.120,0.126,
江戸川 (Edogawa),2012-01-28,17:01～18:00,0.132,0.122,0.127,
江戸川 (Edogawa),2012-01-28,16:01～17:00,0.136,0.120,0.127,
江戸川 (Edogawa),2012-01-28,15:01～16:00,0.136,0.120,0.128,
江戸川 (Edogawa),2012-01-28,14:01～15:00,0.135,0.121,0.127,
江戸川 (Edogawa),2012-01-28,13:01～14:00,0.135,0.118,0.127,
江戸川 (Edogawa),2012-01-28,12:01～13:00,0.134,0.118,0.126,
江戸川 (Edogawa),2012-01-28,11:01～12:00,0.135,0.119,0.126,
江戸川 (Edogawa),2012-01-28,10:01～11:00,0.135,0.120,0.127,
江戸川 (Edogawa),2012-01-28,09:01～10:00,0.133,0.121,0.126,
江戸川 (Edogawa),2012-01-28,08:01～09:00,0.131,0.120,0.126,
江戸川 (Edogawa),2012-01-28,07:01～08:00,0.133,0.119,0.126,
江戸川 (Edogawa),2012-01-28,06:01～07:00,0.134,0.120,0.126,
江戸川 (Edogawa),2012-01-28,05:01～06:00,0.132,0.118,0.126,
江戸川 (Edogawa),2012-01-28,04:01～05:00,0.133,0.119,0.126,
江戸川 (Edogawa),2012-01-28,03:01～04:00,0.132,0.121,0.126,
江戸川 (Edogawa),2012-01-28,02:01～03:00,0.133,0.121,0.126,
江戸川 (Edogawa),2012-01-28,01:01～02:00,0.134,0.120,0.126,
江戸川 (Edogawa),2012-01-28,00:01～01:00,0.135,0.120,0.126,
江戸川 (Edogawa),2012-01-27,23:01～24:00,0.134,0.120,0.126,
江戸川 (Edogawa),2012-01-27,22:01～23:00,0.133,0.120,0.127,
江戸川 (Edogawa),2012-01-27,21:01～22:00,0.133,0.118,0.126,
江戸川 (Edogawa),2012-01-27,20:01～21:00,0.134,0.121,0.128,
江戸川 (Edogawa),2012-01-27,19:01～20:00,0.135,0.120,0.127,
江戸川 (Edogawa),2012-01-27,18:01～19:00,0.136,0.119,0.127,
江戸川 (Edogawa),2012-01-27,17:01～18:00,0.134,0.119,0.128,
江戸川 (Edogawa),2012-01-27,16:01～17:00,0.135,0.121,0.128,
江戸川 (Edogawa),2012-01-27,15:01～16:00,0.134,0.121,0.127,
江戸川 (Edogawa),2012-01-27,14:01～15:00,0.134,0.123,0.128,
江戸川 (Edogawa),2012-01-27,13:01～14:00,0.135,0.122,0.128,
江戸川 (Edogawa),2012-01-27,12:01～13:00,0.134,0.122,0.128,
江戸川 (Edogawa),2012-01-27,11:01～12:00,0.134,0.121,0.128,
江戸川 (Edogawa),2012-01-27,10:01～11:00,0.135,0.121,0.127,
江戸川 (Edogawa),2012-01-27,09:01～10:00,0.135,0.120,0.126,
江戸川 (Edogawa),2012-01-27,08:01～09:00,0.131,0.118,0.126,
江戸川 (Edogawa),2012-01-27,07:01～08:00,0.132,0.117,0.125,
江戸川 (Edogawa),2012-01-27,06:01～07:00,0.132,0.117,0.125,
江戸川 (Edogawa),2012-01-27,05:01～06:00,0.134,0.115,0.124,
江戸川 (Edogawa),2012-01-27,04:01～05:00,0.130,0.119,0.125,
江戸川 (Edogawa),2012-01-27,03:01～04:00,0.133,0.121,0.126,
江戸川 (Edogawa),2012-01-27,02:01～03:00,0.131,0.118,0.125,
江戸川 (Edogawa),2012-01-27,01:01～02:00,0.132,0.121,0.126,
江戸川 (Edogawa),2012-01-27,00:01～01:00,0.132,0.117,0.126,
江戸川 (Edogawa),2012-01-26,23:01～24:00,0.133,0.121,0.126,
江戸川 (Edogawa),2012-01-26,22:01～23:00,0.132,0.120,0.126,
江戸川 (Edogawa),2012-01-26,21:01～22:00,0.132,0.119,0.125,
江戸川 (Edogawa),2012-01-26,20:01～21:00,0.132,0.120,0.126,
江戸川 (Edogawa),2012-01-26,19:01～20:00,0.134,0.117,0.126,
江戸川 (Edogawa),2012-01-26,18:01～19:00,0.134,0.119,0.126,
江戸川 (Edogawa),2012-01-26,17:01～18:00,0.134,0.120,0.126,
江戸川 (Edogawa),2012-01-26,16:01～17:00,0.133,0.121,0.127,
江戸川 (Edogawa),2012-01-26,15:01～16:00,0.135,0.119,0.127,
江戸川 (Edogawa),2012-01-26,14:01～15:00,0.135,0.120,0.128,
江戸川 (Edogawa),2012-01-26,13:01～14:00,0.132,0.121,0.127,
江戸川 (Edogawa),2012-01-26,12:01～13:00,0.136,0.121,0.127,
江戸川 (Edogawa),2012-01-26,11:01～12:00,0.134,0.120,0.127,
江戸川 (Edogawa),2012-01-26,10:01～11:00,0.134,0.120,0.127,
江戸川 (Edogawa),2012-01-26,09:01～10:00,0.131,0.118,0.126,
江戸川 (Edogawa),2012-01-26,08:01～09:00,0.131,0.118,0.124,
江戸川 (Edogawa),2012-01-26,07:01～08:00,0.130,0.119,0.125,
江戸川 (Edogawa),2012-01-26,06:01～07:00,0.132,0.119,0.125,
江戸川 (Edogawa),2012-01-26,05:01～06:00,0.133,0.118,0.125,
江戸川 (Edogawa),2012-01-26,04:01～05:00,0.133,0.119,0.126,
江戸川 (Edogawa),2012-01-26,03:01～04:00,0.132,0.118,0.126,
江戸川 (Edogawa),2012-01-26,02:01～03:00,0.133,0.121,0.125,
江戸川 (Edogawa),2012-01-26,01:01～02:00,0.131,0.119,0.125,
江戸川 (Edogawa),2012-01-26,00:01～01:00,0.132,0.120,0.126,
江戸川 (Edogawa),2012-01-25,23:01～24:00,0.132,0.119,0.126,
江戸川 (Edogawa),2012-01-25,22:01～23:00,0.134,0.119,0.126,
江戸川 (Edogawa),2012-01-25,21:01～22:00,0.132,0.117,0.126,
江戸川 (Edogawa),2012-01-25,20:01～21:00,0.134,0.119,0.127,
江戸川 (Edogawa),2012-01-25,19:01～20:00,0.134,0.118,0.127,
江戸川 (Edogawa),2012-01-25,18:01～19:00,0.133,0.119,0.126,
江戸川 (Edogawa),2012-01-25,17:01～18:00,0.134,0.121,0.127,
江戸川 (Edogawa),2012-01-25,16:01～17:00,0.135,0.120,0.126,
江戸川 (Edogawa),2012-01-25,15:01～16:00,0.132,0.121,0.127,
江戸川 (Edogawa),2012-01-25,14:01～15:00,0.133,0.121,0.127,
江戸川 (Edogawa),2012-01-25,13:01～14:00,0.135,0.121,0.127,
江戸川 (Edogawa),2012-01-25,12:01～13:00,0.134,0.119,0.127,
江戸川 (Edogawa),2012-01-25,11:01～12:00,0.132,0.117,0.126,
江戸川 (Edogawa),2012-01-25,10:01～11:00,0.131,0.118,0.125,
江戸川 (Edogawa),2012-01-25,09:01～10:00,0.130,0.116,0.123,
江戸川 (Edogawa),2012-01-25,08:01～09:00,0.132,0.117,0.124,
江戸川 (Edogawa),2012-01-25,07:01～08:00,0.135,0.116,0.122,
江戸川 (Edogawa),2012-01-25,06:01～07:00,0.129,0.117,0.123,
江戸川 (Edogawa),2012-01-25,05:01～06:00,0.132,0.117,0.123,
江戸川 (Edogawa),2012-01-25,04:01～05:00,0.132,0.117,0.124,
江戸川 (Edogawa),2012-01-25,03:01～04:00,0.133,0.117,0.124,
江戸川 (Edogawa),2012-01-25,02:01～03:00,0.131,0.117,0.123,
江戸川 (Edogawa),2012-01-25,01:01～02:00,0.132,0.117,0.124,
江戸川 (Edogawa),2012-01-25,00:01～01:00,0.129,0.116,0.124,
江戸川 (Edogawa),2012-01-24,23:01～24:00,0.131,0.116,0.124,
江戸川 (Edogawa),2012-01-24,22:01～23:00,0.130,0.114,0.123,
江戸川 (Edogawa),2012-01-24,21:01～22:00,0.129,0.117,0.124,
江戸川 (Edogawa),2012-01-24,20:01～21:00,0.132,0.116,0.124,
江戸川 (Edogawa),2012-01-24,19:01～20:00,0.132,0.117,0.124,
江戸川 (Edogawa),2012-01-24,18:01～19:00,0.134,0.116,0.124,
江戸川 (Edogawa),2012-01-24,17:01～18:00,0.130,0.118,0.124,
江戸川 (Edogawa),2012-01-24,16:01～17:00,0.131,0.119,0.124,
江戸川 (Edogawa),2012-01-24,15:01～16:00,0.131,0.118,0.124,
江戸川 (Edogawa),2012-01-24,14:01～15:00,0.130,0.117,0.123,
江戸川 (Edogawa),2012-01-24,13:01～14:00,0.130,0.115,0.123,
江戸川 (Edogawa),2012-01-24,12:01～13:00,0.127,0.113,0.121,
江戸川 (Edogawa),2012-01-24,11:01～12:00,0.126,0.111,0.119,
江戸川 (Edogawa),2012-01-24,10:01～11:00,0.119,0.106,0.112,
江戸川 (Edogawa),2012-01-24,09:01～10:00,0.118,0.103,0.110,
江戸川 (Edogawa),2012-01-24,08:01～09:00,0.114,0.103,0.110,
江戸川 (Edogawa),2012-01-24,07:01～08:00,0.116,0.103,0.110,
江戸川 (Edogawa),2012-01-24,06:01～07:00,0.115,0.104,0.109,
江戸川 (Edogawa),2012-01-24,05:01～06:00,0.115,0.105,0.109,
江戸川 (Edogawa),2012-01-24,04:01～05:00,0.115,0.103,0.109,
江戸川 (Edogawa),2012-01-24,03:01～04:00,0.117,0.102,0.108,
江戸川 (Edogawa),2012-01-24,02:01～03:00,0.116,0.102,0.109,
江戸川 (Edogawa),2012-01-24,01:01～02:00,0.131,0.108,0.120,
江戸川 (Edogawa),2012-01-24,00:01～01:00,0.164,0.129,0.143,
江戸川 (Edogawa),2012-01-23,23:01～24:00,0.178,0.145,0.161,
江戸川 (Edogawa),2012-01-23,22:01～23:00,0.179,0.154,0.166,
江戸川 (Edogawa),2012-01-23,21:01～22:00,0.176,0.148,0.162,
江戸川 (Edogawa),2012-01-23,20:01～21:00,0.170,0.142,0.157,
江戸川 (Edogawa),2012-01-23,19:01～20:00,0.155,0.138,0.144,
江戸川 (Edogawa),2012-01-23,18:01～19:00,0.173,0.143,0.157,
江戸川 (Edogawa),2012-01-23,17:01～18:00,0.172,0.146,0.159,
江戸川 (Edogawa),2012-01-23,16:01～17:00,0.160,0.138,0.147,
江戸川 (Edogawa),2012-01-23,15:01～16:00,0.148,0.126,0.137,
江戸川 (Edogawa),2012-01-23,14:01～15:00,0.136,0.123,0.130,
江戸川 (Edogawa),2012-01-23,13:01～14:00,0.136,0.123,0.128,
江戸川 (Edogawa),2012-01-23,12:01～13:00,0.134,0.123,0.128,
江戸川 (Edogawa),2012-01-23,11:01～12:00,0.135,0.122,0.128,
江戸川 (Edogawa),2012-01-23,10:01～11:00,0.134,0.121,0.128,
江戸川 (Edogawa),2012-01-23,09:01～10:00,0.135,0.122,0.128,
江戸川 (Edogawa),2012-01-23,08:01～09:00,0.133,0.117,0.124,
江戸川 (Edogawa),2012-01-23,07:01～08:00,0.136,0.117,0.127,
江戸川 (Edogawa),2012-01-23,06:01～07:00,0.133,0.119,0.127,
江戸川 (Edogawa),2012-01-23,05:01～06:00,0.134,0.120,0.127,
江戸川 (Edogawa),2012-01-23,04:01～05:00,0.132,0.120,0.126,
江戸川 (Edogawa),2012-01-23,03:01～04:00,0.135,0.117,0.126,
江戸川 (Edogawa),2012-01-23,02:01～03:00,0.135,0.120,0.126,
江戸川 (Edogawa),2012-01-23,01:01～02:00,0.132,0.120,0.125,
江戸川 (Edogawa),2012-01-23,00:01～01:00,0.132,0.118,0.126,
